Ft Lauderdale, FL

7:18 PM EDT on May 26, 2017 (GMT -0400)
Fort Lauderdale-Hollywood International

Weather History for KFLL - October, 2013

Change the Weather History Date:

Wednesday, October 2, 2013

  Actual Average Record
Temperature  
Mean Temperature 79 °F 82 °F  
Max Temperature 82 °F 88 °F 95 °F (1980)
Min Temperature 75 °F 77 °F 58 °F (1920)
Degree Days  
Heating Degree Days 0 0  
Month to date heating degree days 0 0  
Since 1 July heating degree days 0 0  
Cooling Degree Days 14 17  
Month to date cooling degree days 32 35  
Year to date cooling degree days 3592 3747  
Growing Degree Days 28 (Base 50)    
Moisture  
Dew Point 74 °F    
Average Humidity 83    
Maximum Humidity 97    
Minimum Humidity 69    
Precipitation  
Precipitation 0.26 in 0.27 in 3.10 in (1951)
Month to date precipitation 0.26 0.55  
Year to date precipitation 61.03 50.21  
Snow  
Snow 0.00 in - - ()
Month to date snowfall 0.0  
Since 1 July snowfall 0.0  
Since 1 September snowfall 0.0  
Snow Depth 0.00 in    
Sea Level Pressure  
Sea Level Pressure 30.00 in    
Wind  
Wind Speed 10 mph (East)    
Max Wind Speed 22 mph    
Max Gust Speed 26 mph    
Visibility 9 miles    
Events Rain , Thunderstorm    
T = Trace of Precipitation, MM = Missing Value Source: NWS Daily Summary

Daily Weather History Graph

Daily Weather History Graph

Search for Another Location

Airport or City:

Trip Planner

Search our weather history database for the weather conditions in past years. The results will help you decide how hot, cold, wet, or windy it might be!

Date:

Astronomy

Oct. 02, 2013 Rise Set
Actual Time 7:13 AM EDT 7:05 PM EDT
Civil Twilight 6:50 AM EDT 7:28 PM EDT
Nautical Twilight 6:23 AM EDT 7:55 PM EDT
Astronomical Twilight 5:56 AM EDT 8:22 PM EDT
Moon 4:56 AM EDT (10/2) 5:32 PM EDT (10/2)
Length of Visible Light 12h 38m
Length of Day
11h 52m
Waning Crescent, 6% of the Moon is Illuminated
Oct 2
Waning Crescent
Oct 4
New
Oct 11
First Quarter
Oct 18
Full
Oct 26
Last Quarter

Hourly Weather History & Observations

Time (EDT) Temp. Heat Index Dew Point Humidity Pressure Visibility Wind Dir Wind Speed Gust Speed Precip Events Conditions
12:19 AM 82.4 °F 87.2 °F 71.6 °F 70% 30.01 in 10.0 mi East 12.7 mph - N/A   Mostly Cloudy
12:38 AM 80.6 °F 84.6 °F 71.6 °F 74% 30.01 in 10.0 mi East 15.0 mph - N/A   Scattered Clouds
12:53 AM 81.0 °F 85.8 °F 73.0 °F 77% 30.01 in 10.0 mi East 11.5 mph - N/A   Partly Cloudy
1:17 AM 80.6 °F 85.4 °F 73.4 °F 79% 30.02 in 10.0 mi East 12.7 mph - N/A   Mostly Cloudy
1:41 AM 80.6 °F 85.4 °F 73.4 °F 79% 30.01 in 10.0 mi East 15.0 mph - N/A   Mostly Cloudy
1:53 AM 81.0 °F 85.8 °F 73.0 °F 77% 30.01 in 10.0 mi East 9.2 mph - N/A   Mostly Cloudy
2:53 AM 81.0 °F 85.8 °F 73.0 °F 77% 30.00 in 10.0 mi East 11.5 mph - N/A   Mostly Cloudy
3:24 AM 80.6 °F 85.4 °F 73.4 °F 79% 29.98 in 10.0 mi East 11.5 mph - 0.00 in Rain Light Rain
3:53 AM 81.0 °F 86.2 °F 73.9 °F 79% 29.98 in 10.0 mi East 12.7 mph 17.3 mph 0.00 in   Mostly Cloudy
4:36 AM 80.6 °F 85.4 °F 73.4 °F 79% 29.97 in 10.0 mi East 13.8 mph - N/A   Scattered Clouds
4:53 AM 80.1 °F 84.2 °F 73.0 °F 79% 29.96 in 10.0 mi East 11.5 mph - N/A   Scattered Clouds
5:53 AM 81.0 °F 86.2 °F 73.9 °F 79% 29.97 in 10.0 mi ESE 12.7 mph - N/A   Mostly Cloudy
6:12 AM 80.6 °F 86.2 °F 75.2 °F 84% 29.97 in 10.0 mi East 11.5 mph - N/A   Mostly Cloudy
6:39 AM 80.6 °F 85.4 °F 73.4 °F 79% 29.98 in 10.0 mi East 10.4 mph - N/A   Scattered Clouds
6:53 AM 81.0 °F 85.8 °F 73.0 °F 77% 29.98 in 10.0 mi East 13.8 mph - N/A   Partly Cloudy
7:16 AM 80.6 °F 85.4 °F 73.4 °F 79% 29.99 in 10.0 mi East 9.2 mph - N/A   Mostly Cloudy
7:53 AM 80.1 °F 84.5 °F 73.9 °F 81% 29.99 in 10.0 mi ENE 11.5 mph - N/A   Mostly Cloudy
8:53 AM 81.0 °F 86.2 °F 73.9 °F 79% 30.01 in 10.0 mi ENE 11.5 mph 20.7 mph N/A   Scattered Clouds
9:46 AM 78.8 °F - 75.2 °F 89% 30.02 in 1.5 mi ENE 10.4 mph - 0.00 in Rain Rain
9:53 AM 78.1 °F - 75.9 °F 93% 30.02 in 1.5 mi East 16.1 mph 20.7 mph N/A Rain Rain
10:00 AM 78.8 °F - 77.0 °F 94% 30.02 in 3.0 mi East 12.7 mph 20.7 mph 0.01 in Rain Heavy Rain
10:25 AM 77.0 °F - 77.0 °F 100% 30.02 in 7.0 mi ENE 13.8 mph 20.7 mph 0.03 in Rain Light Rain
10:53 AM 78.1 °F - 77.0 °F 96% 30.03 in 9.0 mi ENE 11.5 mph - 0.05 in Rain Light Rain
11:08 AM 75.2 °F - 75.2 °F 100% 30.03 in 5.0 mi NE 13.8 mph 20.7 mph 0.00 in Rain Rain
11:42 AM 75.2 °F - 75.2 °F 100% 30.03 in 4.0 mi NNE 3.5 mph - 0.02 in Rain , Thunderstorm Heavy Thunderstorms and Rain
11:53 AM 75.9 °F - 75.9 °F 100% 30.03 in 7.0 mi Calm Calm - 0.03 in Rain , Thunderstorm Light Thunderstorms and Rain
12:11 PM 77.0 °F - 77.0 °F 100% 30.03 in 10.0 mi Calm Calm - 0.01 in   Mostly Cloudy
12:53 PM 80.1 °F 85.8 °F 77.0 °F 90% 30.02 in 10.0 mi ENE 8.1 mph - 0.03 in   Mostly Cloudy
1:53 PM 80.1 °F 84.2 °F 73.0 °F 79% 30.01 in 7.0 mi East 10.4 mph - 0.03 in Rain Light Rain
2:00 PM 80.6 °F 85.4 °F 73.4 °F 79% 30.01 in 10.0 mi East 12.7 mph 18.4 mph 0.00 in   Overcast
2:53 PM 78.1 °F - 75.9 °F 93% 30.00 in 5.0 mi East 18.4 mph - 0.02 in Rain Light Rain
3:53 PM 80.1 °F 85.8 °F 77.0 °F 90% 29.97 in 10.0 mi East 11.5 mph - 0.01 in   Mostly Cloudy
4:53 PM 82.0 °F 86.7 °F 72.0 °F 71% 29.98 in 10.0 mi East 11.5 mph - 0.01 in   Mostly Cloudy
5:53 PM 82.0 °F 86.7 °F 72.0 °F 71% 29.98 in 10.0 mi ENE 10.4 mph - 0.02 in   Mostly Cloudy
6:53 PM 81.0 °F 85.2 °F 72.0 °F 74% 29.99 in 10.0 mi ENE 10.4 mph - 0.01 in   Mostly Cloudy
7:31 PM 80.6 °F 85.4 °F 73.4 °F 79% 30.00 in 10.0 mi SE 10.4 mph - 0.01 in   Overcast
7:41 PM 78.8 °F - 73.4 °F 83% 30.00 in 10.0 mi ESE 8.1 mph - 0.01 in   Overcast
7:53 PM 80.1 °F 84.5 °F 73.9 °F 81% 30.00 in 10.0 mi SE 8.1 mph - 0.02 in   Overcast
8:53 PM 81.0 °F 84.9 °F 71.1 °F 72% 30.01 in 10.0 mi ENE 8.1 mph - 0.01 in   Mostly Cloudy
9:53 PM 81.0 °F 85.8 °F 73.0 °F 77% 30.03 in 10.0 mi ENE 5.8 mph - N/A   Mostly Cloudy
10:53 PM 81.0 °F 84.9 °F 71.1 °F 72% 30.04 in 10.0 mi East 8.1 mph - 0.01 in   Partly Cloudy
11:53 PM 78.1 °F - 72.0 °F 81% 30.05 in 10.0 mi SW 3.5 mph - 0.01 in   Overcast